Time,TemperatureF,DewpointF,PressureIn,WindDirection,WindDirectionDegrees,WindSpeedMPH,WindSpeedGustMPH,Humidity,HourlyPrecipIn,Conditions,Clouds,dailyrainin,SoftwareType,DateUTC
2013-06-09 00:00:00,59.5,57.8,29.92,South,180,0.0,-999.0,94,-99.99,,,0.00,Acu-Link.com,2013-06-09 04:00:00,
2013-06-09 00:15:00,59.2,57.8,29.94,WNW,292,0.0,-999.0,95,-99.99,,,0.00,Acu-Link.com,2013-06-09 04:15:00,
2013-06-09 00:30:00,58.8,57.7,29.95,East,90,0.0,-999.0,96,-99.99,,,0.00,Acu-Link.com,2013-06-09 04:30:00,
2013-06-09 00:45:00,58.5,57.4,29.94,NE,45,0.0,-999.0,96,-99.99,,,0.00,Acu-Link.com,2013-06-09 04:45:00,
2013-06-09 01:01:00,58.1,57.0,29.94,West,270,0.0,-999.0,96,-99.99,,,0.00,Acu-Link.com,2013-06-09 05:01:00,
2013-06-09 01:16:00,57.7,56.9,29.95,SSW,202,1.7,-999.0,97,-99.99,,,0.00,Acu-Link.com,2013-06-09 05:16:00,
2013-06-09 01:31:00,57.6,56.8,29.96,WSW,247,0.0,-999.0,97,-99.99,,,0.00,Acu-Link.com,2013-06-09 05:31:00,
2013-06-09 01:46:00,57.2,56.4,29.95,SSW,202,0.0,-999.0,97,-99.99,,,0.00,Acu-Link.com,2013-06-09 05:46:00,
2013-06-09 02:01:00,56.8,56.2,29.97,East,90,0.0,-999.0,98,-99.99,,,0.00,Acu-Link.com,2013-06-09 06:01:00,
2013-06-09 02:17:00,56.7,56.1,29.97,WSW,247,0.0,-999.0,98,-99.99,,,0.00,Acu-Link.com,2013-06-09 06:17:00,
2013-06-09 02:32:00,56.5,56.2,29.96,West,270,0.0,-999.0,99,-99.99,,,0.00,Acu-Link.com,2013-06-09 06:32:00,
2013-06-09 02:47:00,56.5,56.2,29.96,NNE,22,0.0,-999.0,99,-99.99,,,0.00,Acu-Link.com,2013-06-09 06:47:00,
2013-06-09 03:02:00,56.3,56.0,29.96,SW,225,0.0,-999.0,99,-99.99,,,0.00,Acu-Link.com,2013-06-09 07:02:00,
2013-06-09 03:17:00,56.1,55.8,29.97,SW,225,0.0,-999.0,99,-99.99,,,0.00,Acu-Link.com,2013-06-09 07:17:00,
2013-06-09 03:33:00,55.9,55.6,29.96,NW,315,0.0,-999.0,99,-99.99,,,0.00,Acu-Link.com,2013-06-09 07:33:00,
2013-06-09 03:48:00,55.8,55.5,29.97,SSW,202,0.0,-999.0,99,-99.99,,,0.00,Acu-Link.com,2013-06-09 07:48:00,
2013-06-09 04:03:00,55.8,55.5,29.98,SSW,202,0.0,-999.0,99,-99.99,,,0.00,Acu-Link.com,2013-06-09 08:03:00,
2013-06-09 04:18:00,55.6,55.3,29.98,SSW,202,0.0,-999.0,99,-99.99,,,0.00,Acu-Link.com,2013-06-09 08:18:00,
2013-06-09 04:33:00,55.4,55.1,29.98,WSW,247,0.0,-999.0,99,-99.99,,,0.00,Acu-Link.com,2013-06-09 08:33:00,
2013-06-09 04:49:00,54.9,54.6,29.97,ESE,112,0.0,-999.0,99,-99.99,,,0.00,Acu-Link.com,2013-06-09 08:49:00,
2013-06-09 05:04:00,54.5,54.2,29.99,NNW,337,0.0,-999.0,99,-99.99,,,0.00,Acu-Link.com,2013-06-09 09:04:00,
2013-06-09 05:19:00,54.7,54.4,29.99,SW,225,0.0,-999.0,99,-99.99,,,0.00,Acu-Link.com,2013-06-09 09:19:00,
2013-06-09 05:34:00,54.5,54.2,30.00,SSW,202,0.0,-999.0,99,-99.99,,,0.00,Acu-Link.com,2013-06-09 09:34:00,
2013-06-09 05:49:00,54.3,54.0,30.00,SW,225,0.0,-999.0,99,-99.99,,,0.00,Acu-Link.com,2013-06-09 09:49:00,
2013-06-09 06:05:00,54.7,54.4,29.99,WSW,247,0.0,-999.0,99,-99.99,,,0.00,Acu-Link.com,2013-06-09 10:05:00,
2013-06-09 06:20:00,54.9,54.6,30.01,WSW,247,0.0,-999.0,99,-99.99,,,0.00,Acu-Link.com,2013-06-09 10:20:00,
2013-06-09 06:35:00,55.6,55.3,30.01,ENE,67,2.2,-999.0,99,-99.99,,,0.00,Acu-Link.com,2013-06-09 10:35:00,
2013-06-09 06:50:00,56.5,55.7,30.01,NE,45,1.1,-999.0,97,-99.99,,,0.00,Acu-Link.com,2013-06-09 10:50:00,
2013-06-09 07:06:00,57.9,56.2,30.02,SSE,157,1.7,-999.0,94,-99.99,,,0.00,Acu-Link.com,2013-06-09 11:06:00,
2013-06-09 07:21:00,59.7,57.1,30.03,NE,45,2.7,-999.0,91,-99.99,,,0.00,Acu-Link.com,2013-06-09 11:21:00,
2013-06-09 07:36:00,61.7,57.1,30.03,East,90,3.2,-999.0,85,-99.99,,,0.00,Acu-Link.com,2013-06-09 11:36:00,
2013-06-09 07:51:00,62.4,57.5,30.03,NE,45,1.7,-999.0,84,-99.99,,,0.00,Acu-Link.com,2013-06-09 11:51:00,
2013-06-09 08:22:00,65.7,57.6,30.04,WSW,247,3.7,-999.0,75,-99.99,,,0.00,Acu-Link.com,2013-06-09 12:22:00,
2013-06-09 08:37:00,66.0,57.5,30.05,WSW,247,4.7,-999.0,74,-99.99,,,0.00,Acu-Link.com,2013-06-09 12:37:00,
2013-06-09 08:52:00,68.0,57.8,30.04,SW,225,2.2,-999.0,70,-99.99,,,0.00,Acu-Link.com,2013-06-09 12:52:00,
2013-06-09 09:07:00,68.0,57.0,30.04,South,180,4.2,-999.0,68,-99.99,,,0.00,Acu-Link.com,2013-06-09 13:07:00,
2013-06-09 09:22:00,69.6,56.0,30.04,NE,45,6.3,-999.0,62,-99.99,,,0.00,Acu-Link.com,2013-06-09 13:22:00,
2013-06-09 09:38:00,70.0,55.9,30.04,NE,45,3.7,-999.0,61,-99.99,,,0.00,Acu-Link.com,2013-06-09 13:38:00,
2013-06-09 09:53:00,70.5,55.5,30.05,SW,225,4.2,-999.0,59,-99.99,,,0.00,Acu-Link.com,2013-06-09 13:53:00,
2013-06-09 10:08:00,71.2,56.1,30.04,SW,225,3.2,-999.0,59,-99.99,,,0.00,Acu-Link.com,2013-06-09 14:08:00,
2013-06-09 10:23:00,72.5,55.9,30.05,North,0,3.2,-999.0,56,-99.99,,,0.00,Acu-Link.com,2013-06-09 14:23:00,
2013-06-09 10:38:00,72.7,56.1,30.04,South,180,0.0,-999.0,56,-99.99,,,0.00,Acu-Link.com,2013-06-09 14:38:00,
2013-06-09 10:54:00,73.6,56.9,30.03,NNE,22,2.2,-999.0,56,-99.99,,,0.00,Acu-Link.com,2013-06-09 14:54:00,
2013-06-09 11:09:00,73.2,55.0,30.03,East,90,3.7,-999.0,53,-99.99,,,0.00,Acu-Link.com,2013-06-09 15:09:00,
2013-06-09 11:24:00,74.7,57.4,30.03,South,180,2.2,-999.0,55,-99.99,,,0.00,Acu-Link.com,2013-06-09 15:24:00,
2013-06-09 11:39:00,75.4,57.1,30.03,NW,315,4.2,-999.0,53,-99.99,,,0.00,Acu-Link.com,2013-06-09 15:39:00,
2013-06-09 11:55:00,78.3,55.2,30.02,NE,45,1.7,-999.0,45,-99.99,,,0.00,Acu-Link.com,2013-06-09 15:55:00,
2013-06-09 12:10:00,76.6,56.6,30.02,SW,225,2.2,-999.0,50,-99.99,,,0.00,Acu-Link.com,2013-06-09 16:10:00,
2013-06-09 12:25:00,77.5,54.5,30.02,NE,45,1.7,-999.0,45,-99.99,,,0.00,Acu-Link.com,2013-06-09 16:25:00,
2013-06-09 12:40:00,78.6,57.2,30.02,WSW,247,5.8,-999.0,48,-99.99,,,0.00,Acu-Link.com,2013-06-09 16:40:00,
2013-06-09 12:55:00,77.4,55.0,30.01,SSW,202,5.3,-999.0,46,-99.99,,,0.00,Acu-Link.com,2013-06-09 16:55:00,
2013-06-09 13:11:00,78.3,57.0,30.01,SW,225,3.7,-999.0,48,-99.99,,,0.00,Acu-Link.com,2013-06-09 17:11:00,
2013-06-09 13:26:00,78.6,56.1,30.01,SW,225,6.3,-999.0,46,-99.99,,,0.00,Acu-Link.com,2013-06-09 17:26:00,
2013-06-09 13:41:00,79.2,56.0,30.01,NNW,337,2.7,-999.0,45,-99.99,,,0.00,Acu-Link.com,2013-06-09 17:41:00,
2013-06-09 13:56:00,79.9,57.8,30.02,SW,225,1.7,-999.0,47,-99.99,,,0.00,Acu-Link.com,2013-06-09 17:56:00,
2013-06-09 14:11:00,78.4,56.5,30.01,West,270,3.7,-999.0,47,-99.99,,,0.00,Acu-Link.com,2013-06-09 18:11:00,
2013-06-09 14:27:00,79.0,56.4,30.02,ENE,67,4.2,-999.0,46,-99.99,,,0.00,Acu-Link.com,2013-06-09 18:27:00,
2013-06-09 14:42:00,77.4,57.8,30.01,NE,45,2.2,-999.0,51,-99.99,,,0.00,Acu-Link.com,2013-06-09 18:42:00,
2013-06-09 14:57:00,79.0,57.6,30.01,ENE,67,2.2,-999.0,48,-99.99,,,0.00,Acu-Link.com,2013-06-09 18:57:00,
2013-06-09 15:12:00,79.3,59.6,30.01,SE,135,1.1,-999.0,51,-99.99,,,0.00,Acu-Link.com,2013-06-09 19:12:00,
2013-06-09 15:27:00,77.5,57.9,30.02,WSW,247,1.7,-999.0,51,-99.99,,,0.00,Acu-Link.com,2013-06-09 19:27:00,
2013-06-09 15:43:00,79.2,60.6,30.02,SSE,157,2.2,-999.0,53,-99.99,,,0.00,Acu-Link.com,2013-06-09 19:43:00,
2013-06-09 15:58:00,78.4,58.2,30.00,East,90,1.7,-999.0,50,-99.99,,,0.00,Acu-Link.com,2013-06-09 19:58:00,
2013-06-09 16:13:00,78.3,57.5,30.01,NNE,22,3.2,-999.0,49,-99.99,,,0.00,Acu-Link.com,2013-06-09 20:13:00,
2013-06-09 16:28:00,79.2,57.8,30.02,SW,225,2.7,-999.0,48,-99.99,,,0.00,Acu-Link.com,2013-06-09 20:28:00,
2013-06-09 16:44:00,80.6,58.5,30.00,South,180,5.3,-999.0,47,-99.99,,,0.00,Acu-Link.com,2013-06-09 20:44:00,
2013-06-09 16:59:00,80.1,58.0,30.02,ESE,112,3.7,-999.0,47,-99.99,,,0.00,Acu-Link.com,2013-06-09 20:59:00,
2013-06-09 17:14:00,81.5,58.7,30.01,SW,225,2.2,-999.0,46,-99.99,,,0.00,Acu-Link.com,2013-06-09 21:14:00,
2013-06-09 17:29:00,80.4,57.1,30.01,WNW,292,4.2,-999.0,45,-99.99,,,0.00,Acu-Link.com,2013-06-09 21:29:00,
2013-06-09 17:44:00,79.5,57.5,30.00,West,270,3.2,-999.0,47,-99.99,,,0.00,Acu-Link.com,2013-06-09 21:44:00,
2013-06-09 18:00:00,80.1,57.4,30.00,ESE,112,1.7,-999.0,46,-99.99,,,0.00,Acu-Link.com,2013-06-09 22:00:00,
2013-06-09 18:15:00,78.1,56.8,30.00,West,270,1.7,-999.0,48,-99.99,,,0.00,Acu-Link.com,2013-06-09 22:15:00,
2013-06-09 18:30:00,78.4,55.9,30.01,ENE,67,2.2,-999.0,46,-99.99,,,0.00,Acu-Link.com,2013-06-09 22:30:00,
2013-06-09 18:45:00,77.0,55.8,30.01,NNE,22,2.7,-999.0,48,-99.99,,,0.00,Acu-Link.com,2013-06-09 22:45:00,
2013-06-09 19:00:00,76.5,55.3,30.02,NW,315,1.7,-999.0,48,-99.99,,,0.00,Acu-Link.com,2013-06-09 23:00:00,
2013-06-09 19:16:00,75.0,54.5,30.02,ESE,112,1.7,-999.0,49,-99.99,,,0.00,Acu-Link.com,2013-06-09 23:16:00,
2013-06-09 19:31:00,73.0,56.9,30.03,South,180,0.0,-999.0,57,-99.99,,,0.00,Acu-Link.com,2013-06-09 23:31:00,
2013-06-09 19:46:00,72.1,56.5,30.04,WSW,247,0.0,-999.0,58,-99.99,,,0.00,Acu-Link.com,2013-06-09 23:46:00,
2013-06-09 20:02:00,70.9,57.2,30.04,South,180,0.0,-999.0,62,-99.99,,,0.00,Acu-Link.com,2013-06-10 00:02:00,
2013-06-09 20:17:00,69.8,56.6,30.04,ESE,112,0.0,-999.0,63,-99.99,,,0.00,Acu-Link.com,2013-06-10 00:17:00,
2013-06-09 20:32:00,68.5,55.0,30.04,East,90,0.0,-999.0,62,-99.99,,,0.00,Acu-Link.com,2013-06-10 00:32:00,
2013-06-09 20:47:00,67.3,54.7,30.04,SSE,157,0.0,-999.0,64,-99.99,,,0.00,Acu-Link.com,2013-06-10 00:47:00,
2013-06-09 21:02:00,66.4,54.3,30.05,SSE,157,0.0,-999.0,65,-99.99,,,0.00,Acu-Link.com,2013-06-10 01:02:00,
2013-06-09 21:18:00,66.2,54.5,30.06,NNE,22,0.0,-999.0,66,-99.99,,,0.00,Acu-Link.com,2013-06-10 01:18:00,
2013-06-09 21:33:00,65.5,54.2,30.05,ENE,67,0.0,-999.0,67,-99.99,,,0.00,Acu-Link.com,2013-06-10 01:33:00,
2013-06-09 21:49:00,64.9,54.5,30.07,NE,45,0.0,-999.0,69,-99.99,,,0.00,Acu-Link.com,2013-06-10 01:49:00,
2013-06-09 22:04:00,64.6,54.2,30.08,NNE,22,0.0,-999.0,69,-99.99,,,0.00,Acu-Link.com,2013-06-10 02:04:00,
2013-06-09 22:20:00,64.8,54.0,30.08,SSW,202,0.0,-999.0,68,-99.99,,,0.00,Acu-Link.com,2013-06-10 02:20:00,
2013-06-09 22:35:00,63.9,54.3,30.09,East,90,0.0,-999.0,71,-99.99,,,0.00,Acu-Link.com,2013-06-10 02:35:00,
2013-06-09 22:51:00,63.1,54.3,30.09,NE,45,0.0,-999.0,73,-99.99,,,0.00,Acu-Link.com,2013-06-10 02:51:00,
2013-06-09 23:06:00,62.6,54.6,30.08,SSE,157,0.0,-999.0,75,-99.99,,,0.00,Acu-Link.com,2013-06-10 03:06:00,
2013-06-09 23:23:00,62.4,54.7,30.09,East,90,0.0,-999.0,76,-99.99,,,0.00,Acu-Link.com,2013-06-10 03:23:00,
2013-06-09 23:38:00,62.4,54.0,30.08,South,180,0.0,-999.0,74,-99.99,,,0.00,Acu-Link.com,2013-06-10 03:38:00,
2013-06-09 23:54:00,62.1,53.7,30.09,NNE,22,0.0,-999.0,74,-99.99,,,0.00,Acu-Link.com,2013-06-10 03:54:00,